Weather Roundup
Issued by NWS Chicago, IL

Home | Current Version | Previous Version | Text Only | Print | Product List | Glossary Off
Versions: 1 2 3 4 5 6 7 8 9 10 11 12 13 14 15 16 17 18 19 20 21 22 23 24 25 26 27 28 29 30 31 32 33 34 35 36 37 38 39 40 41 42 43 44 45 46 47 48 49 50

000
NZUS59 KLOT 120006
HRRLOT

CHICAGO AREA WEATHER ROUNDUP
NATIONAL WEATHER SERVICE CHICAGO/ROMEOVILLE IL
700 PM CDT FRI JUL 11 2014

NOTE: "FAIR" INDICATES FEW OR NO CLOUDS BELOW 12,000 FEET WITH NO
SIGNIFICANT WEATHER AND/OR OBSTRUCTIONS TO VISIBILITY.

* THESE STATIONS ARE NOT UNDER NWS QUALITY CONTROL. THEY ALSO MAY NOT
  REPORT WEATHER SUCH AS PRECIPITATION OR FOG.

ILZ005-006-012>014-019>023-120100-
NORTHEAST ILLINOIS

CITY           SKY/WX    TMP DP  RH WIND       PRES   REMARKS
OHARE          CLOUDY    76  57  51 S5        30.11R
6HR MIN TEMP:  72; 6HR MAX TEMP:  81; 6HR PCP:  0.01;

MIDWAY         CLOUDY    80  56  43 S8        30.11R HX  80
6HR MIN TEMP:  80; 6HR MAX TEMP:  83; 6HR PCP: TRACE;

AURORA         LGT RAIN  74  60  61 S8        30.11S
6HR MIN TEMP:  74; 6HR MAX TEMP:  80; 6HR PCP: TRACE;

LANSING*       CLOUDY    75  56  51 S8        30.12S
JOLIET*        CLOUDY    76  56  49 S6        30.12S
WAUKEGAN       CLOUDY    73  57  57 S5        30.11S
6HR MIN TEMP:  70; 6HR MAX TEMP:  77; 6HR PCP: TRACE;

DUPAGE AIRPORT CLOUDY    75  60  59 S6        30.11R
6HR MIN TEMP:  75; 6HR MAX TEMP:  81;

WHEELING       CLOUDY    76  58  53 SE3       30.13R
6HR MIN TEMP:  74; 6HR MAX TEMP:  82; 6HR PCP: TRACE;

KANKAKEE*      CLOUDY    78  63  60 SE5       30.14R HX  80
MORRIS*        LGT RAIN  76  62  62 S5        30.10F
LEWIS AIRPORT* CLOUDY    76  56  50 S7        30.11F
NORTHERLY IS     N/A     71  64  78 CALM        N/A
$$

WIZ051-052-058>065-066-070>072-120100-
SOUTHEAST WISCONSIN

CITY           SKY/WX    TMP DP  RH WIND       PRES   REMARKS
MILWAUKEE      PTSUNNY   72  53  51 S7        30.12S
6HR MIN TEMP:  70; 6HR MAX TEMP:  79; 6HR PCP: TRACE;

KENOSHA*       PTSUNNY   72  59  63 S3        30.12R
RACINE*        CLOUDY    73  56  54 S5        30.14R
BURLINGTON     PTSUNNY   71  57  62 CALM      30.11F
WAUKESHA       SUNNY     73  54  49 S12       30.13R
WEST BEND      MOSUNNY   72  52  49 S8        30.12S
$$

INZ001>003-010>013-019-020-120100-
NORTHWEST INDIANA

CITY           SKY/WX    TMP DP  RH WIND       PRES   REMARKS
GARY*          CLOUDY    77  57  50 SE5       30.12S
MICHIGAN CITY* NOT AVBL
RENSSELAER*    NOT AVBL
VALPARAISO     LGT RAIN  74  60  61 S3        30.14S
$$

LMZ740>746-120100-
SOUTHERN LAKE MICHIGAN

STATION/POSITION TIME  SKY/WX   TEMP WIND        PRES    VSBY
                                AIR  DIR/SP/G
                 (UTC)          (F)  (DEG/KT/KT) (MB)    (MI)
HARRISON CRIB    0000            72  120/  9/ 11   N/A
BURNHAM HARBOR   0000            71   CALM  /  5   N/A
CALUMET HARBOR   0000            78  170/  7/ 10 1020.4F
BURNS HARBOR     0000            75  190/  9/ 12 1020.3R
MICHIGAN CITY    0000            75  170/  5/  7   N/A
$$

ABBREVIATIONS USED IN REMARKS
   TC - TEMPERATURE IN CELSIUS
  WCI - WIND CHILL INDEX
   HX - HEAT INDEX
  VSB - VISIBILITY
$$


USA.gov is the U.S. government's official web portal to all federal, state and local government web resources and services.